• In Russia
  • List of Countries
  • For 7 days
  • Water Temperature
  • Satellite Maps
  • Weather Map
  • Weather Widgets
  • user-avatar
    Login

    Hourly Weather Pleven

    Today, 21 November, Wednesday

    Time Temperature Precipitation Wind Pressure Humidity
    00:00 +3°C° 0.5 mm 2 mps 746 mmHg 98%
    01:00 +3°C° 0.5 mm 2 mps 746 mmHg 98%
    02:00 +3°C° 0 mm 2 mps 746 mmHg 98%
    03:00 +4°C° 0.4 mm 2 mps 745 mmHg 98%
    04:00 +4°C° 0.4 mm 2 mps 745 mmHg 98%
    05:00 +4°C° 0.4 mm 2 mps 745 mmHg 98%
    06:00 +4°C° 0.4 mm 2 mps 744 mmHg 98%
    07:00 +4°C° 0.4 mm 2 mps 744 mmHg 98%
    08:00 +4°C° 0 mm 2 mps 744 mmHg 97%
    09:00 +4°C° 0.5 mm 2 mps 744 mmHg 97%
    10:00 +4°C° 0.5 mm 2 mps 744 mmHg 96%
    11:00 +3°C° 0.5 mm 3 mps 744 mmHg 96%
    12:00 +4°C° 0.9 mm 2 mps 744 mmHg 96%
    13:00 +4°C° 0.9 mm 2 mps 744 mmHg 96%
    14:00 +4°C° 0.9 mm 2 mps 744 mmHg 96%
    15:00 +4°C° 1.2 mm 2 mps 744 mmHg 96%
    16:00 +4°C° 1.2 mm 2 mps 744 mmHg 96%
    17:00 +3°C° 1.2 mm 2 mps 744 mmHg 95%
    18:00 +3°C° 0.7 mm 2 mps 745 mmHg 95%
    19:00 +3°C° 0.7 mm 2 mps 745 mmHg 95%
    20:00 +3°C° 0.7 mm 2 mps 746 mmHg 95%
    21:00 +3°C° 0.3 mm 2 mps 746 mmHg 95%
    22:00 +4°C° 0.3 mm 1 mps 747 mmHg 95%
    23:00 +4°C° 0.3 mm 1 mps 747 mmHg 95%

    Tomorrow, 22 November, Thursday

    Time Temperature Precipitation Wind Pressure Humidity
    00:00 +4°C° 0.2 mm 1 mps 748 mmHg 95%
    01:00 +4°C° 0.2 mm 1 mps 748 mmHg 95%
    02:00 +3°C° 0.2 mm 2 mps 748 mmHg 95%
    03:00 +3°C° 0.2 mm 2 mps 748 mmHg 94%
    04:00 +3°C° 0.2 mm 2 mps 748 mmHg 94%
    05:00 +3°C° 0.2 mm 2 mps 749 mmHg 94%
    06:00 +3°C° 0.2 mm 2 mps 749 mmHg 94%
    07:00 +3°C° 0.2 mm 2 mps 749 mmHg 94%
    08:00 +3°C° 0.2 mm 2 mps 750 mmHg 93%
    09:00 +3°C° 0.2 mm 2 mps 750 mmHg 92%
    10:00 +3°C° 0.2 mm 2 mps 750 mmHg 91%
    11:00 +4°C° 0.2 mm 2 mps 750 mmHg 89%
    12:00 +4°C° 0.1 mm 2 mps 750 mmHg 89%
    13:00 +4°C° 0.1 mm 2 mps 750 mmHg 88%
    14:00 +4°C° 0.1 mm 2 mps 750 mmHg 87%
    15:00 +4°C° 0.2 mm 2 mps 751 mmHg 88%
    16:00 +4°C° 0.2 mm 2 mps 751 mmHg 89%
    17:00 +4°C° 0.2 mm 1 mps 751 mmHg 90%
    18:00 +4°C° 0.1 mm 1 mps 751 mmHg 91%
    19:00 +4°C° 0.1 mm 1 mps 752 mmHg 91%
    20:00 +4°C° 0.1 mm 1 mps 752 mmHg 91%
    21:00 +4°C° 0.1 mm 1 mps 752 mmHg 91%
    22:00 +4°C° 0.1 mm 1 mps 752 mmHg 91%
    23:00 +4°C° 0.1 mm 1 mps 752 mmHg 91%

    Day after tomorrow, 23 November, Friday

    Time Temperature Precipitation Wind Pressure Humidity
    00:00 +4°C° 0 mm 1 mps 753 mmHg 91%
    01:00 +4°C° 0 mm 1 mps 753 mmHg 91%
    02:00 +3°C° 0 mm 1 mps 753 mmHg 90%
    03:00 +2°C° 0 mm 0 mps 753 mmHg 90%
    04:00 +2°C° 0 mm 0 mps 753 mmHg 90%
    05:00 +2°C° 0 mm 0 mps 753 mmHg 90%
    06:00 +2°C° 0 mm 0 mps 753 mmHg 89%
    07:00 +2°C° 0 mm 0 mps 754 mmHg 89%
    08:00 +2°C° 0 mm 0 mps 754 mmHg 88%
    09:00 +4°C° 0 mm 1 mps 754 mmHg 84%
    10:00 +5°C° 0 mm 1 mps 754 mmHg 80%
    11:00 +6°C° 0 mm 1 mps 754 mmHg 76%
    12:00 +7°C° 0 mm 1 mps 754 mmHg 73%
    13:00 +7°C° 0 mm 1 mps 754 mmHg 70%
    14:00 +8°C° 0 mm 1 mps 754 mmHg 68%
    15:00 +7°C° 0 mm 1 mps 754 mmHg 70%
    16:00 +6°C° 0 mm 1 mps 754 mmHg 72%
    17:00 +6°C° 0 mm 1 mps 754 mmHg 75%
    18:00 +5°C° 0 mm 1 mps 754 mmHg 75%
    19:00 +5°C° 0 mm 1 mps 755 mmHg 76%
    20:00 +5°C° 0 mm 1 mps 755 mmHg 76%
    21:00 +4°C° 0 mm 1 mps 755 mmHg 77%
    22:00 +4°C° 0 mm 1 mps 755 mmHg 77%
    23:00 +4°C° 0 mm 1 mps 755 mmHg 78%

    24 November, Saturday

    Time Temperature Precipitation Wind Pressure Humidity
    00:00 +4°C° 0 mm 1 mps 755 mmHg 79%
    01:00 +4°C° 0 mm 1 mps 755 mmHg 79%
    02:00 +3°C° 0 mm 1 mps 754 mmHg 80%
    03:00 +3°C° 0 mm 1 mps 754 mmHg 80%
    04:00 +3°C° 0 mm 1 mps 754 mmHg 80%
    05:00 +3°C° 0 mm 1 mps 753 mmHg 80%
    06:00 +3°C° 0 mm 1 mps 753 mmHg 80%
    07:00 +3°C° 0 mm 1 mps 753 mmHg 79%
    08:00 +3°C° 0 mm 1 mps 753 mmHg 78%
    09:00 +5°C° 0 mm 1 mps 753 mmHg 74%
    10:00 +6°C° 0 mm 1 mps 752 mmHg 69%
    11:00 +8°C° 0 mm 1 mps 752 mmHg 64%
    12:00 +8°C° 0 mm 1 mps 751 mmHg 62%
    13:00 +9°C° 0 mm 1 mps 751 mmHg 61%
    14:00 +10°C° 0 mm 1 mps 750 mmHg 59%
    15:00 +9°C° 0 mm 1 mps 750 mmHg 62%
    16:00 +8°C° 0 mm 1 mps 750 mmHg 65%
    17:00 +7°C° 0 mm 1 mps 750 mmHg 69%
    18:00 +7°C° 0 mm 1 mps 749 mmHg 68%
    19:00 +6°C° 0 mm 1 mps 749 mmHg 68%
    20:00 +6°C° 0 mm 1 mps 749 mmHg 68%
    21:00 +6°C° 0 mm 1 mps 749 mmHg 68%
    22:00 +6°C° 0 mm 1 mps 749 mmHg 69%
    23:00 +6°C° 0 mm 1 mps 749 mmHg 69%

    25 November, Sunday

    Time Temperature Precipitation Wind Pressure Humidity
    00:00 +6°C° 0 mm 1 mps 749 mmHg 70%
    01:00 +6°C° 0 mm 1 mps 748 mmHg 71%
    02:00 +6°C° 0 mm 1 mps 748 mmHg 72%
    03:00 +6°C° 0 mm 1 mps 748 mmHg 73%
    04:00 +5°C° 0 mm 1 mps 747 mmHg 74%
    05:00 +5°C° 0 mm 1 mps 747 mmHg 74%
    06:00 +5°C° 0 mm 1 mps 747 mmHg 75%
    07:00 +5°C° 0 mm 1 mps 747 mmHg 75%
    08:00 +6°C° 0 mm 1 mps 747 mmHg 75%
    09:00 +7°C° 0 mm 1 mps 746 mmHg 71%
    10:00 +9°C° 0 mm 1 mps 746 mmHg 67%
    11:00 +11°C° 0 mm 1 mps 746 mmHg 62%
    12:00 +12°C° 0 mm 1 mps 745 mmHg 60%
    13:00 +13°C° 0 mm 1 mps 745 mmHg 59%
    14:00 +13°C° 0 mm 1 mps 744 mmHg 57%
    15:00 +12°C° 0 mm 1 mps 744 mmHg 62%
    16:00 +11°C° 0 mm 1 mps 744 mmHg 66%
    17:00 +10°C° 0 mm 1 mps 743 mmHg 71%
    18:00 +10°C° 0 mm 1 mps 743 mmHg 72%
    19:00 +9°C° 0 mm 1 mps 743 mmHg 73%
    20:00 +9°C° 0 mm 1 mps 743 mmHg 74%
    21:00 +9°C° 0 mm 1 mps 743 mmHg 74%
    22:00 +9°C° 0 mm 1 mps 743 mmHg 74%
    23:00 +9°C° 0 mm 1 mps 743 mmHg 75%

    26 November, Monday

    Time Temperature Precipitation Wind Pressure Humidity
    00:00 +9°C° 0 mm 1 mps 742 mmHg 76%
    01:00 +9°C° 0 mm 1 mps 742 mmHg 76%
    02:00 +9°C° 0 mm 1 mps 741 mmHg 77%
    03:00 +9°C° 0.3 mm 1 mps 741 mmHg 79%
    04:00 +9°C° 0.3 mm 1 mps 740 mmHg 81%
    05:00 +7°C° 0.3 mm 2 mps 740 mmHg 83%
    06:00 +7°C° 0.7 mm 2 mps 739 mmHg 85%
    07:00 +7°C° 0.7 mm 2 mps 739 mmHg 87%
    08:00 +7°C° 0.7 mm 2 mps 739 mmHg 89%
    09:00 +7°C° 0.5 mm 2 mps 739 mmHg 88%
    10:00 +8°C° 0.5 mm 2 mps 738 mmHg 87%
    11:00 +8°C° 0.5 mm 2 mps 738 mmHg 86%
    12:00 +8°C° 0.6 mm 2 mps 738 mmHg 87%
    13:00 +8°C° 0.6 mm 2 mps 738 mmHg 87%
    14:00 +8°C° 0.6 mm 2 mps 737 mmHg 87%
    15:00 +7°C° 0.7 mm 2 mps 738 mmHg 89%
    16:00 +8°C° 0.7 mm 1 mps 738 mmHg 90%
    17:00 +7°C° 0.7 mm 1 mps 738 mmHg 91%
    18:00 +7°C° 0.1 mm 1 mps 739 mmHg 91%
    19:00 +7°C° 0.1 mm 1 mps 739 mmHg 91%
    20:00 +7°C° 0.1 mm 1 mps 740 mmHg 91%
    21:00 +7°C° 0 mm 1 mps 740 mmHg 92%
    22:00 +6°C° 0 mm 1 mps 740 mmHg 92%
    23:00 +6°C° 0 mm 1 mps 741 mmHg 93%
    Show more